Hourly Weather Tibissa

Today, 1 October, Thursday

Time Temperature Precipitation Wind Pressure Humidity
00:00 +23°C° 0 mm 1 mps 684 mmHg 47%
01:00 +21°C° 0 mm 0 mps 684 mmHg 49%
02:00 +21°C° 0 mm 0 mps 683 mmHg 51%
03:00 +20°C° 0 mm 0 mps 683 mmHg 52%
04:00 +22°C° 0 mm 1 mps 682 mmHg 53%
05:00 +22°C° 0 mm 1 mps 682 mmHg 55%
06:00 +21°C° 0 mm 1 mps 682 mmHg 56%
07:00 +22°C° 0 mm 1 mps 683 mmHg 57%
08:00 +23°C° 0 mm 1 mps 683 mmHg 52%
09:00 +24°C° 0 mm 1 mps 683 mmHg 47%
10:00 +23°C° 0 mm 0 mps 683 mmHg 41%
11:00 +27°C° 0 mm 1 mps 683 mmHg 38%
12:00 +28°C° 0 mm 2 mps 684 mmHg 35%
13:00 +29°C° 0 mm 2 mps 684 mmHg 32%
14:00 +29°C° 0 mm 2 mps 683 mmHg 33%
15:00 +29°C° 0 mm 2 mps 683 mmHg 33%
16:00 +29°C° 0 mm 2 mps 682 mmHg 34%
17:00 +28°C° 0 mm 2 mps 682 mmHg 39%
18:00 +27°C° 0 mm 2 mps 682 mmHg 43%
19:00 +26°C° 0 mm 2 mps 682 mmHg 48%
20:00 +25°C° 0.3 mm 2 mps 682 mmHg 52%
21:00 +24°C° 0.3 mm 1 mps 682 mmHg 56%
22:00 +23°C° 0.3 mm 1 mps 682 mmHg 59%
23:00 +22°C° 0 mm 1 mps 682 mmHg 62%

Tomorrow, 2 October, Friday

Time Temperature Precipitation Wind Pressure Humidity
00:00 +22°C° 0 mm 1 mps 682 mmHg 65%
01:00 +21°C° 0 mm 2 mps 681 mmHg 68%
02:00 +20°C° 0 mm 2 mps 681 mmHg 71%
03:00 +20°C° 0 mm 2 mps 680 mmHg 75%
04:00 +19°C° 0 mm 2 mps 680 mmHg 78%
05:00 +19°C° 0 mm 2 mps 680 mmHg 76%
06:00 +20°C° 0 mm 3 mps 680 mmHg 74%
07:00 +20°C° 0 mm 3 mps 680 mmHg 71%
08:00 +22°C° 0 mm 4 mps 680 mmHg 59%
09:00 +25°C° 0 mm 5 mps 681 mmHg 47%
10:00 +27°C° 0 mm 7 mps 681 mmHg 35%
11:00 +29°C° 0 mm 8 mps 681 mmHg 32%
12:00 +31°C° 0 mm 8 mps 681 mmHg 29%
13:00 +32°C° 0 mm 9 mps 681 mmHg 26%
14:00 +32°C° 0 mm 9 mps 680 mmHg 26%
15:00 +32°C° 0 mm 9 mps 680 mmHg 25%
16:00 +31°C° 0 mm 9 mps 679 mmHg 25%
17:00 +29°C° 0 mm 8 mps 679 mmHg 30%
18:00 +28°C° 0 mm 7 mps 679 mmHg 36%
19:00 +26°C° 0 mm 7 mps 678 mmHg 41%
20:00 +26°C° 0 mm 5 mps 678 mmHg 43%
21:00 +25°C° 0 mm 4 mps 678 mmHg 44%
22:00 +25°C° 0 mm 3 mps 678 mmHg 46%
23:00 +25°C° 0 mm 4 mps 678 mmHg 44%

Day after tomorrow, 3 October, Saturday

Time Temperature Precipitation Wind Pressure Humidity
00:00 +25°C° 0 mm 5 mps 678 mmHg 43%
01:00 +24°C° 0 mm 6 mps 677 mmHg 42%
02:00 +24°C° 0 mm 6 mps 677 mmHg 39%
03:00 +24°C° 0 mm 6 mps 677 mmHg 37%
04:00 +24°C° 0 mm 6 mps 677 mmHg 35%
05:00 +23°C° 0 mm 5 mps 677 mmHg 36%
06:00 +22°C° 0 mm 4 mps 677 mmHg 37%
07:00 +22°C° 0 mm 3 mps 677 mmHg 39%
08:00 +25°C° 0 mm 4 mps 678 mmHg 36%
09:00 +26°C° 0 mm 5 mps 679 mmHg 33%
10:00 +28°C° 0 mm 6 mps 680 mmHg 30%
11:00 +29°C° 0 mm 8 mps 680 mmHg 28%
12:00 +31°C° 0 mm 10 mps 680 mmHg 26%
13:00 +32°C° 0 mm 11 mps 680 mmHg 23%
14:00 +32°C° 0 mm 11 mps 680 mmHg 22%
15:00 +32°C° 0 mm 11 mps 680 mmHg 21%
16:00 +31°C° 0 mm 11 mps 680 mmHg 20%
17:00 +28°C° 0 mm 9 mps 681 mmHg 31%
18:00 +24°C° 0 mm 7 mps 681 mmHg 42%
19:00 +21°C° 0 mm 5 mps 681 mmHg 53%
20:00 +20°C° 0 mm 4 mps 681 mmHg 61%
21:00 +19°C° 0 mm 3 mps 682 mmHg 69%
22:00 +18°C° 0 mm 2 mps 682 mmHg 78%
23:00 +18°C° 0 mm 2 mps 682 mmHg 79%

4 October, Sunday

Time Temperature Precipitation Wind Pressure Humidity
00:00 +17°C° 0 mm 2 mps 682 mmHg 80%
01:00 +18°C° 0 mm 1 mps 682 mmHg 81%
02:00 +18°C° 0 mm 1 mps 682 mmHg 82%
03:00 +16°C° 0 mm 1 mps 682 mmHg 83%
04:00 +16°C° 0 mm 1 mps 682 mmHg 83%
05:00 +16°C° 0 mm 2 mps 682 mmHg 84%
06:00 +16°C° 0 mm 2 mps 682 mmHg 85%
07:00 +16°C° 0 mm 2 mps 682 mmHg 86%
08:00 +18°C° 0 mm 3 mps 682 mmHg 71%
09:00 +20°C° 0 mm 4 mps 683 mmHg 57%
10:00 +23°C° 0 mm 5 mps 683 mmHg 43%
11:00 +24°C° 0 mm 6 mps 683 mmHg 39%
12:00 +26°C° 0 mm 7 mps 683 mmHg 34%
13:00 +28°C° 0 mm 8 mps 683 mmHg 30%
14:00 +28°C° 0 mm 8 mps 683 mmHg 30%
15:00 +28°C° 0 mm 8 mps 682 mmHg 31%
16:00 +27°C° 0 mm 9 mps 682 mmHg 31%
17:00 +26°C° 0 mm 8 mps 682 mmHg 36%
18:00 +24°C° 0 mm 7 mps 682 mmHg 40%
19:00 +22°C° 0 mm 6 mps 682 mmHg 45%
20:00 +21°C° 0 mm 5 mps 682 mmHg 47%
21:00 +21°C° 0 mm 4 mps 682 mmHg 49%
22:00 +20°C° 0 mm 3 mps 683 mmHg 52%
23:00 +20°C° 0 mm 2 mps 682 mmHg 51%

5 October, Monday

Time Temperature Precipitation Wind Pressure Humidity
00:00 +19°C° 0 mm 2 mps 682 mmHg 51%
01:00 +19°C° 0 mm 2 mps 682 mmHg 51%
02:00 +20°C° 0 mm 1 mps 682 mmHg 51%
03:00 +19°C° 0 mm 1 mps 682 mmHg 51%
04:00 +19°C° 0 mm 1 mps 682 mmHg 52%
05:00 +19°C° 0 mm 1 mps 682 mmHg 51%
06:00 +19°C° 0 mm 1 mps 682 mmHg 50%
07:00 +18°C° 0 mm 2 mps 682 mmHg 49%
08:00 +19°C° 0 mm 2 mps 683 mmHg 44%
09:00 +21°C° 0 mm 3 mps 683 mmHg 39%
10:00 +22°C° 0 mm 4 mps 684 mmHg 33%
11:00 +23°C° 0 mm 5 mps 684 mmHg 33%
12:00 +23°C° 0 mm 5 mps 684 mmHg 32%
13:00 +24°C° 0 mm 6 mps 684 mmHg 31%
14:00 +25°C° 0 mm 5 mps 683 mmHg 33%
15:00 +23°C° 0 mm 4 mps 683 mmHg 35%
16:00 +22°C° 0 mm 4 mps 683 mmHg 37%
17:00 +21°C° 0 mm 5 mps 683 mmHg 45%
18:00 +19°C° 0 mm 5 mps 683 mmHg 52%
19:00 +17°C° 0 mm 6 mps 683 mmHg 60%
20:00 +16°C° 0 mm 6 mps 684 mmHg 65%
21:00 +15°C° 0 mm 5 mps 684 mmHg 70%
22:00 +15°C° 0 mm 5 mps 685 mmHg 75%
23:00 +14°C° 0 mm 5 mps 685 mmHg 75%

6 October, Tuesday

Time Temperature Precipitation Wind Pressure Humidity
00:00 +14°C° 0 mm 5 mps 685 mmHg 75%
01:00 +13°C° 0 mm 5 mps 685 mmHg 75%
02:00 +13°C° 0 mm 5 mps 685 mmHg 75%
03:00 +13°C° 0 mm 4 mps 685 mmHg 75%
04:00 +13°C° 0 mm 4 mps 684 mmHg 75%
05:00 +13°C° 0 mm 4 mps 685 mmHg 74%
06:00 +12°C° 0 mm 4 mps 685 mmHg 74%
07:00 +12°C° 0 mm 4 mps 685 mmHg 73%
08:00 +13°C° 0 mm 4 mps 686 mmHg 68%
09:00 +14°C° 0 mm 4 mps 686 mmHg 62%
10:00 +15°C° 0 mm 4 mps 687 mmHg 56%
11:00 +17°C° 0 mm 4 mps 687 mmHg 52%
12:00 +18°C° 0 mm 4 mps 687 mmHg 48%
13:00 +19°C° 0 mm 4 mps 687 mmHg 44%
14:00 +19°C° 0 mm 4 mps 686 mmHg 42%
15:00 +19°C° 0 mm 4 mps 686 mmHg 40%
16:00 +19°C° 0 mm 4 mps 686 mmHg 38%
17:00 +19°C° 0 mm 4 mps 686 mmHg 41%
18:00 +18°C° 0 mm 4 mps 686 mmHg 44%
19:00 +17°C° 0 mm 4 mps 687 mmHg 47%
20:00 +16°C° 0 mm 3 mps 687 mmHg 55%
21:00 +16°C° 0 mm 3 mps 687 mmHg 62%
22:00 +14°C° 0 mm 3 mps 687 mmHg 69%
23:00 +14°C° 0 mm 2 mps 687 mmHg 72%
Show more

We Need Your Consent

Meteoprog and our Service Providers may store and access personal data such as cookies, device identifiers or other similar technologies on your device and process such data to personalise content and ads, as well as provide social media features and to analyse the traffic.

  • Store and/or access information on your device

    Cookies, device identifiers or other information can be stored or accessed on your device for the purposes indicated above.

  • Personalised ads and content, ad and content measurement, audience insights, and products development

    Ads and content can be personalised based on a profile. More data can be added to better personalise ads and content. Ad and content performance can be measured. Insights about the audience who saw the ads and content can be derived. Such data can be used to develop or improve user’s experience, systems and software.

By clicking ‘I Agree’ you will allow the use of indicated cookies, device identifiers, web beacons or other similar technologies. Your settings can be changed in the browser on your device.

For certain purposes, legitimate interests may be relied on, rather than consent. You can read more about this in our Privacy and Cookie Policy.